Weather reports worldwide

Advertisment
South Newington, United Kingdom (99166): temperature & dewpoint: 03.04.2020 12:00:00 - 09.04.2020 12:00:00 (BST)South Newington, United Kingdom (99166): temperature -20cm & temperature -100cm: 03.04.2020 12:00:00 - 09.04.2020 12:00:00 (BST)South Newington, United Kingdom (99166): precipitation: 03.04.2020 12:00:00 - 09.04.2020 12:00:00 (BST)
Date & Time tt [°C] td [°C] tt -20cm [°C] tt -100cm [°C] rr [mm]
09.04.2020 12:00:00 18,8 9,9 - - 0,0
09.04.2020 11:00:00 17,4 9,8 - - 0,0
09.04.2020 10:00:00 14,6 9,0 10,2 8,2 0,0
09.04.2020 09:00:00 12,1 8,7 - - 0,0
09.04.2020 08:00:00 6,6 6,5 - - 0,0
09.04.2020 07:00:00 3,6 3,4 - - 0,0
09.04.2020 06:00:00 3,5 3,2 - - 0,0
09.04.2020 05:00:00 4,0 3,7 - - 0,0
09.04.2020 04:00:00 4,4 4,0 - - 0,0
09.04.2020 03:00:00 5,0 4,5 - - 0,0
09.04.2020 02:00:00 5,6 5,0 - - 0,0
09.04.2020 01:00:00 6,3 5,5 - - 0,0
09.04.2020 00:00:00 7,3 6,3 - - 0,0
08.04.2020 23:00:00 8,4 7,3 - - 0,0
08.04.2020 22:00:00 9,3 7,5 - - 0,0
08.04.2020 21:00:00 11,2 8,4 - - 0,0
08.04.2020 20:00:00 14,4 9,1 - - 0,0
08.04.2020 19:00:00 19,5 8,2 - - 0,0
08.04.2020 18:00:00 19,6 8,5 - - 0,0
08.04.2020 17:00:00 20,2 8,6 - - 0,0
08.04.2020 16:00:00 20,0 8,2 - - 0,0
08.04.2020 15:00:00 19,8 7,8 - - 0,0
08.04.2020 14:00:00 19,3 7,5 - - 0,0
08.04.2020 13:00:00 18,3 5,7 - - 0,0
08.04.2020 12:00:00 17,5 6,5 - - 0,0
08.04.2020 11:00:00 15,9 7,4 - - 0,0
08.04.2020 10:00:00 14,4 7,0 9,5 8,0 0,0
08.04.2020 09:00:00 12,9 6,3 - - 0,0
08.04.2020 08:00:00 8,0 7,0 - - 0,0
08.04.2020 07:00:00 4,1 3,9 - - 0,0
08.04.2020 06:00:00 2,7 2,4 - - 0,0
08.04.2020 05:00:00 2,6 2,2 - - 0,0
08.04.2020 04:00:00 3,5 3,0 - - 0,0
08.04.2020 03:00:00 4,4 3,6 - - 0,0
08.04.2020 02:00:00 5,2 4,0 - - 0,0
08.04.2020 01:00:00 6,4 5,0 - - 0,0
08.04.2020 00:00:00 7,5 5,9 - - 0,0
07.04.2020 23:00:00 7,2 5,4 - - 0,0
07.04.2020 22:00:00 7,4 5,4 - - 0,0
07.04.2020 21:00:00 9,3 6,3 - - 0,0
07.04.2020 20:00:00 11,8 6,8 - - 0,0
07.04.2020 19:00:00 16,1 5,4 - - 0,0
07.04.2020 18:00:00 16,9 3,7 - - 0,0
07.04.2020 17:00:00 17,3 3,4 - - 0,0
07.04.2020 16:00:00 17,5 4,2 - - 0,0
07.04.2020 15:00:00 17,3 4,8 - - 0,0
07.04.2020 14:00:00 16,1 3,3 - - 0,0
07.04.2020 13:00:00 15,9 4,4 - - 0,0
07.04.2020 12:00:00 15,1 4,3 - - 0,0
07.04.2020 11:00:00 14,3 6,1 - - 0,0
07.04.2020 10:00:00 11,5 5,1 8,7 8,0 0,0
07.04.2020 09:00:00 7,4 4,6 - - 0,0
07.04.2020 08:00:00 0,6 0,6 - - 0,2
07.04.2020 07:00:00 -2,1 -2,4 - - 0,0
07.04.2020 06:00:00 -1,9 -2,2 - - 0,0
07.04.2020 05:00:00 -1,8 -2,1 - - 0,0
07.04.2020 04:00:00 -1,3 -1,6 - - 0,0
07.04.2020 03:00:00 -1,1 -1,5 - - 0,0
07.04.2020 02:00:00 -0,2 -0,6 - - 0,0
07.04.2020 01:00:00 0,4 -0,4 - - 0,0
07.04.2020 00:00:00 1,9 1,1 - - 0,0
06.04.2020 23:00:00 3,1 1,9 - - 0,0
06.04.2020 22:00:00 4,5 2,9 - - 0,0
06.04.2020 21:00:00 6,5 3,5 - - 0,0
06.04.2020 20:00:00 10,4 3,7 - - 0,0
06.04.2020 19:00:00 13,5 3,7 - - 0,0
06.04.2020 18:00:00 15,1 3,5 - - 0,0
06.04.2020 17:00:00 15,8 5,4 - - 0,0
06.04.2020 16:00:00 14,4 4,5 - - 0,0
06.04.2020 15:00:00 14,7 4,8 - - 0,0
06.04.2020 14:00:00 13,1 6,1 - - 0,0
06.04.2020 13:00:00 14,8 4,1 - - 0,0
06.04.2020 12:00:00 15,2 6,2 - - 0,0
06.04.2020 11:00:00 14,7 7,2 - - 0,0
06.04.2020 10:00:00 12,4 6,8 9,2 7,9 0,0
06.04.2020 09:00:00 11,0 8,3 - - 0,0
06.04.2020 08:00:00 10,5 8,4 - - 0,0
06.04.2020 07:00:00 10,3 8,2 - - 0,0
06.04.2020 06:00:00 11,9 10,2 - - 0,2
06.04.2020 05:00:00 12,8 11,2 - - 0,4
06.04.2020 04:00:00 12,8 9,8 - - 0,0
06.04.2020 03:00:00 13,1 8,0 - - 0,0
06.04.2020 02:00:00 13,6 7,0 - - 0,0
06.04.2020 01:00:00 13,0 6,5 - - 0,0
06.04.2020 00:00:00 12,8 5,5 - - 0,0
05.04.2020 23:00:00 14,1 4,2 - - 0,0
05.04.2020 22:00:00 14,6 3,3 - - 0,0
05.04.2020 21:00:00 15,3 3,2 - - 0,0
05.04.2020 20:00:00 16,6 3,3 - - 0,0
05.04.2020 19:00:00 18,2 4,1 - - 0,0
05.04.2020 18:00:00 19,1 4,5 - - 0,0
05.04.2020 17:00:00 19,5 3,9 - - 0,0
05.04.2020 16:00:00 20,4 4,1 - - 0,0
05.04.2020 15:00:00 20,1 3,6 - - 0,0
05.04.2020 14:00:00 19,4 3,5 - - 0,0
05.04.2020 13:00:00 18,4 4,8 - - 0,0
05.04.2020 12:00:00 17,1 4,9 - - 0,0
05.04.2020 11:00:00 15,1 4,5 - - 0,0
05.04.2020 10:00:00 12,9 4,8 7,7 7,9 0,0
05.04.2020 09:00:00 10,0 4,2 - - 0,0
05.04.2020 08:00:00 3,2 3,2 - - 0,0
05.04.2020 07:00:00 -0,5 -0,6 - - 0,0
05.04.2020 06:00:00 -1,2 -1,5 - - 0,0
05.04.2020 05:00:00 -0,6 -0,9 - - 0,0
05.04.2020 04:00:00 0,1 -0,2 - - 0,0
05.04.2020 03:00:00 -0,4 -1,1 - - 0,0
05.04.2020 02:00:00 0,7 -0,2 - - 0,0
05.04.2020 01:00:00 1,2 0,4 - - 0,0
05.04.2020 00:00:00 1,8 0,9 - - 0,0
04.04.2020 23:00:00 1,8 0,4 - - 0,0
04.04.2020 22:00:00 3,7 0,7 - - 0,0
04.04.2020 21:00:00 7,1 0,4 - - 0,0
04.04.2020 20:00:00 11,4 0,7 - - 0,0
04.04.2020 19:00:00 13,3 0,8 - - 0,0
04.04.2020 18:00:00 14,2 1,6 - - 0,0
04.04.2020 17:00:00 14,7 2,5 - - 0,0
04.04.2020 16:00:00 14,3 3,7 - - 0,0
04.04.2020 15:00:00 13,6 4,3 - - 0,0
04.04.2020 14:00:00 13,3 5,0 - - 0,0
04.04.2020 13:00:00 13,5 7,2 - - 0,0
04.04.2020 12:00:00 11,7 6,7 - - 0,0
04.04.2020 11:00:00 8,5 5,8 - - 0,0
04.04.2020 10:00:00 6,2 5,0 7,7 7,7 0,0
04.04.2020 09:00:00 6,8 5,2 - - 0,0
04.04.2020 08:00:00 0,7 0,6 - - 0,0
04.04.2020 07:00:00 -1,4 -1,6 - - 0,0
04.04.2020 06:00:00 -1,3 -1,5 - - 0,0
04.04.2020 05:00:00 -0,9 -1,1 - - 0,0
04.04.2020 04:00:00 -0,7 -1,0 - - 0,0
04.04.2020 03:00:00 -0,4 -0,9 - - 0,0
04.04.2020 02:00:00 0,6 0,2 - - 0,0
04.04.2020 01:00:00 0,7 0,3 - - 0,0
04.04.2020 00:00:00 0,3 -0,4 - - 0,0
03.04.2020 23:00:00 1,0 -0,2 - - 0,0
03.04.2020 22:00:00 2,6 1,1 - - 0,0
03.04.2020 21:00:00 4,8 1,8 - - 0,0
03.04.2020 20:00:00 8,6 2,9 - - 0,0
03.04.2020 19:00:00 11,3 2,6 - - 0,0
03.04.2020 18:00:00 12,5 2,4 - - 0,0
03.04.2020 17:00:00 11,9 2,7 - - 0,0
03.04.2020 16:00:00 12,4 1,8 - - 0,0
03.04.2020 15:00:00 12,4 1,6 - - 0,0
03.04.2020 14:00:00 10,9 1,0 - - 0,0
03.04.2020 13:00:00 10,4 1,2 - - 0,0
03.04.2020 12:00:00 9,5 1,4 - - 0,0

tt = temperature
td = dewpoint
tt -20cm = temperature -20cm
tt -100cm = temperature -100cm
rr = precipitation

Next stations